Time,TemperatureF,DewpointF,PressureIn,WindDirection,WindDirectionDegrees,WindSpeedMPH,WindSpeedGustMPH,Humidity,HourlyPrecipIn,Conditions,Clouds,dailyrainin,SoftwareType,DateUTC
2013-06-26 00:02:00,76.0,72.0,29.75,SW,228,3.0,-999.0,88,-99.99,,,-99.99,,2013-06-26 04:02:00,
2013-06-26 00:22:00,77.0,72.0,29.73,WSW,248,3.0,-999.0,86,-99.99,,,-99.99,,2013-06-26 04:22:00,
2013-06-26 00:33:00,77.0,72.0,29.73,WSW,248,3.0,-999.0,86,-99.99,,,-99.99,,2013-06-26 04:33:00,
2013-06-26 00:43:00,77.0,73.0,29.73,West,263,0.0,-999.0,87,-99.99,,,-99.99,,2013-06-26 04:43:00,
2013-06-26 00:53:00,77.0,73.0,29.73,West,263,0.0,-999.0,87,-99.99,,,-99.99,,2013-06-26 04:53:00,
2013-06-26 01:02:00,75.0,69.0,29.73,West,277,6.0,-999.0,83,-99.99,,,-99.99,,2013-06-26 05:02:00,
2013-06-26 01:11:00,74.0,68.0,29.72,West,266,3.0,-999.0,83,-99.99,,,-99.99,,2013-06-26 05:11:00,
2013-06-26 01:22:00,74.0,68.0,29.72,West,266,3.0,-999.0,83,-99.99,,,-99.99,,2013-06-26 05:22:00,
2013-06-26 01:34:00,74.0,69.0,29.72,WSW,258,2.0,-999.0,84,-99.99,,,-99.99,,2013-06-26 05:34:00,
2013-06-26 01:43:00,73.0,68.0,29.73,West,281,3.0,-999.0,83,-99.99,,,-99.99,,2013-06-26 05:43:00,
2013-06-26 01:52:00,73.0,68.0,29.73,West,281,3.0,-999.0,83,-99.99,,,-99.99,,2013-06-26 05:52:00,
2013-06-26 02:02:00,73.0,67.0,29.73,WNW,303,4.0,-999.0,82,-99.99,,,-99.99,,2013-06-26 06:02:00,
2013-06-26 02:22:00,73.0,67.0,29.73,WSW,258,4.0,-999.0,82,-99.99,,,-99.99,,2013-06-26 06:22:00,
2013-06-26 02:34:00,73.0,68.0,29.73,West,266,2.0,-999.0,83,-99.99,,,-99.99,,2013-06-26 06:34:00,
2013-06-26 02:43:00,72.0,67.0,29.73,SW,235,3.0,-999.0,83,-99.99,,,-99.99,,2013-06-26 06:43:00,
2013-06-26 03:01:00,72.0,67.0,29.74,West,268,3.0,-999.0,84,-99.99,,,-99.99,,2013-06-26 07:01:00,
2013-06-26 03:11:00,72.0,67.0,29.74,West,279,3.0,-999.0,84,-99.99,,,-99.99,,2013-06-26 07:11:00,
2013-06-26 03:22:00,72.0,67.0,29.74,West,279,3.0,-999.0,84,-99.99,,,-99.99,,2013-06-26 07:22:00,
2013-06-26 03:33:00,72.0,67.0,29.73,WSW,257,3.0,-999.0,84,-99.99,,,-99.99,,2013-06-26 07:33:00,
2013-06-26 03:43:00,72.0,67.0,29.74,WNW,284,3.0,-999.0,83,-99.99,,,-99.99,,2013-06-26 07:43:00,
2013-06-26 03:53:00,72.0,67.0,29.74,WNW,284,3.0,-999.0,83,-99.99,,,-99.99,,2013-06-26 07:53:00,
2013-06-26 04:01:00,71.0,66.0,29.73,WSW,242,2.0,-999.0,83,-99.99,,,-99.99,,2013-06-26 08:01:00,
2013-06-26 04:22:00,71.0,66.0,29.73,WSW,242,1.0,-999.0,84,-99.99,,,-99.99,,2013-06-26 08:22:00,
2013-06-26 04:33:00,71.0,66.0,29.74,West,263,1.0,-999.0,84,-99.99,,,-99.99,,2013-06-26 08:33:00,
2013-06-26 04:42:00,71.0,66.0,29.74,West,264,1.0,-999.0,85,-99.99,,,-99.99,,2013-06-26 08:42:00,
2013-06-26 04:52:00,71.0,66.0,29.74,West,264,1.0,-999.0,85,-99.99,,,-99.99,,2013-06-26 08:52:00,
2013-06-26 05:01:00,71.0,66.0,29.74,WSW,258,1.0,-999.0,84,-99.99,,,-99.99,,2013-06-26 09:01:00,
2013-06-26 05:23:00,71.0,66.0,29.74,West,267,1.0,-999.0,84,-99.99,,,-99.99,,2013-06-26 09:23:00,
2013-06-26 05:33:00,71.0,66.0,29.74,West,269,1.0,-999.0,84,-99.99,,,-99.99,,2013-06-26 09:33:00,
2013-06-26 05:43:00,70.0,65.0,29.74,West,269,0.0,-999.0,85,-99.99,,,-99.99,,2013-06-26 09:43:00,
2013-06-26 05:53:00,70.0,65.0,29.74,West,269,0.0,-999.0,85,-99.99,,,-99.99,,2013-06-26 09:53:00,
2013-06-26 06:01:00,70.0,65.0,29.75,West,269,0.0,-999.0,85,-99.99,,,-99.99,,2013-06-26 10:01:00,
2013-06-26 06:12:00,70.0,65.0,29.75,West,269,0.0,-999.0,85,-99.99,,,-99.99,,2013-06-26 10:12:00,
2013-06-26 06:22:00,70.0,66.0,29.75,West,269,0.0,-999.0,86,-99.99,,,-99.99,,2013-06-26 10:22:00,
2013-06-26 06:34:00,70.0,66.0,29.76,West,269,0.0,-999.0,87,-99.99,,,-99.99,,2013-06-26 10:34:00,
2013-06-26 06:53:00,70.0,66.0,29.76,West,269,0.0,-999.0,86,-99.99,,,-99.99,,2013-06-26 10:53:00,
2013-06-26 07:02:00,71.0,67.0,29.77,West,269,1.0,-999.0,86,-99.99,,,-99.99,,2013-06-26 11:02:00,
2013-06-26 07:12:00,71.0,67.0,29.77,West,269,1.0,-999.0,86,-99.99,,,-99.99,,2013-06-26 11:12:00,
2013-06-26 07:33:00,72.0,67.0,29.76,West,269,0.0,-999.0,85,-99.99,,,-99.99,,2013-06-26 11:33:00,
2013-06-26 07:52:00,72.0,67.0,29.76,WSW,252,1.0,-999.0,83,-99.99,,,-99.99,,2013-06-26 11:52:00,
2013-06-26 08:02:00,72.0,67.0,29.76,WSW,252,1.0,-999.0,83,-99.99,,,-99.99,,2013-06-26 12:02:00,
2013-06-26 08:12:00,72.0,67.0,29.76,WSW,252,1.0,-999.0,83,-99.99,,,-99.99,,2013-06-26 12:12:00,
2013-06-26 08:22:00,74.0,68.0,29.77,SW,233,1.0,-999.0,81,-99.99,,,-99.99,,2013-06-26 12:22:00,
2013-06-26 08:34:00,74.0,67.0,29.77,SW,226,2.0,-999.0,80,-99.99,,,-99.99,,2013-06-26 12:34:00,
2013-06-26 08:43:00,75.0,68.0,29.77,WSW,242,1.0,-999.0,78,-99.99,,,-99.99,,2013-06-26 12:43:00,
2013-06-26 08:52:00,75.0,68.0,29.77,WSW,242,1.0,-999.0,78,-99.99,,,-99.99,,2013-06-26 12:52:00,
2013-06-26 09:02:00,76.0,68.0,29.77,WNW,288,1.0,-999.0,77,-99.99,,,-99.99,,2013-06-26 13:02:00,
2013-06-26 09:11:00,76.0,68.0,29.77,WNW,288,1.0,-999.0,77,-99.99,,,-99.99,,2013-06-26 13:11:00,
2013-06-26 09:23:00,77.0,68.0,29.77,WSW,249,2.0,-999.0,74,-99.99,,,-99.99,,2013-06-26 13:23:00,
2013-06-26 09:43:00,78.0,68.0,29.77,WNW,282,2.0,-999.0,71,-99.99,,,-99.99,,2013-06-26 13:43:00,
2013-06-26 09:53:00,78.0,68.0,29.77,WNW,282,2.0,-999.0,71,-99.99,,,-99.99,,2013-06-26 13:53:00,
2013-06-26 10:02:00,79.0,68.0,29.77,WNW,299,3.0,-999.0,70,-99.99,,,-99.99,,2013-06-26 14:02:00,
2013-06-26 10:12:00,79.0,68.0,29.77,WNW,299,3.0,-999.0,70,-99.99,,,-99.99,,2013-06-26 14:12:00,
2013-06-26 10:24:00,80.0,69.0,29.76,WNW,291,1.0,-999.0,69,-99.99,,,-99.99,,2013-06-26 14:24:00,
2013-06-26 10:34:00,80.0,70.0,29.76,WSW,248,2.0,-999.0,71,-99.99,,,-99.99,,2013-06-26 14:34:00,
2013-06-26 10:42:00,80.0,70.0,29.76,WSW,248,2.0,-999.0,71,-99.99,,,-99.99,,2013-06-26 14:42:00,
2013-06-26 10:53:00,80.0,70.0,29.76,WSW,248,2.0,-999.0,71,-99.99,,,-99.99,,2013-06-26 14:53:00,
2013-06-26 11:02:00,82.0,69.0,29.76,WSW,256,3.0,-999.0,66,-99.99,,,-99.99,,2013-06-26 15:02:00,
2013-06-26 11:22:00,82.0,68.0,29.76,West,281,3.0,-999.0,62,-99.99,,,-99.99,,2013-06-26 15:22:00,
2013-06-26 11:34:00,83.0,68.0,29.76,SSW,205,3.0,-999.0,61,-99.99,,,-99.99,,2013-06-26 15:34:00,
2013-06-26 11:44:00,83.0,68.0,29.76,SW,223,4.0,-999.0,60,-99.99,,,-99.99,,2013-06-26 15:44:00,
2013-06-26 11:53:00,83.0,68.0,29.76,SW,223,4.0,-999.0,60,-99.99,,,-99.99,,2013-06-26 15:53:00,
2013-06-26 12:02:00,84.0,70.0,29.76,WNW,282,2.0,-999.0,62,-99.99,,,-99.99,,2013-06-26 16:02:00,
2013-06-26 12:11:00,84.0,70.0,29.76,WNW,282,2.0,-999.0,62,-99.99,,,-99.99,,2013-06-26 16:11:00,
2013-06-26 12:22:00,84.0,69.0,29.75,WSW,248,4.0,-999.0,60,-99.99,,,-99.99,,2013-06-26 16:22:00,
2013-06-26 12:43:00,84.0,68.0,29.75,WNW,282,3.0,-999.0,58,-99.99,,,-99.99,,2013-06-26 16:43:00,
2013-06-26 12:52:00,84.0,67.0,29.75,SW,234,2.0,-999.0,57,-99.99,,,-99.99,,2013-06-26 16:52:00,
2013-06-26 13:02:00,85.0,69.0,29.76,WSW,244,2.0,-999.0,58,-99.99,,,-99.99,,2013-06-26 17:02:00,
2013-06-26 13:24:00,86.0,70.0,29.75,North,360,3.0,-999.0,59,-99.99,,,-99.99,,2013-06-26 17:24:00,
2013-06-26 13:43:00,87.0,69.0,29.75,WSW,252,2.0,-999.0,56,-99.99,,,-99.99,,2013-06-26 17:43:00,
2013-06-26 13:52:00,87.0,69.0,29.75,WSW,252,2.0,-999.0,56,-99.99,,,-99.99,,2013-06-26 17:52:00,
2013-06-26 14:01:00,87.0,70.0,29.75,West,278,2.0,-999.0,58,-99.99,,,-99.99,,2013-06-26 18:01:00,
2013-06-26 14:22:00,87.0,70.0,29.74,SW,234,3.0,-999.0,58,-99.99,,,-99.99,,2013-06-26 18:22:00,
2013-06-26 14:34:00,87.0,70.0,29.74,SSW,209,2.0,-999.0,58,-99.99,,,-99.99,,2013-06-26 18:34:00,
2013-06-26 14:43:00,88.0,72.0,29.73,SW,221,2.0,-999.0,60,-99.99,,,-99.99,,2013-06-26 18:43:00,
2013-06-26 14:52:00,88.0,72.0,29.73,SW,221,2.0,-999.0,60,-99.99,,,-99.99,,2013-06-26 18:52:00,
2013-06-26 15:02:00,89.0,72.0,29.73,SW,234,1.0,-999.0,57,-99.99,,,-99.99,,2013-06-26 19:02:00,
2013-06-26 15:11:00,89.0,72.0,29.73,SW,234,1.0,-999.0,57,-99.99,,,-99.99,,2013-06-26 19:11:00,
2013-06-26 15:22:00,90.0,73.0,29.72,WSW,246,2.0,-999.0,57,-99.99,,,-99.99,,2013-06-26 19:22:00,
2013-06-26 15:43:00,89.0,72.0,29.71,SW,219,2.0,-999.0,58,-99.99,,,-99.99,,2013-06-26 19:43:00,
2013-06-26 15:52:00,89.0,72.0,29.71,SW,219,2.0,-999.0,58,-99.99,,,-99.99,,2013-06-26 19:52:00,
2013-06-26 16:02:00,89.0,73.0,29.71,SW,221,3.0,-999.0,59,-99.99,,,-99.99,,2013-06-26 20:02:00,
2013-06-26 16:12:00,89.0,73.0,29.71,SW,221,3.0,-999.0,59,-99.99,,,-99.99,,2013-06-26 20:12:00,
2013-06-26 16:43:00,87.0,72.0,29.69,SSW,211,3.0,-999.0,62,-99.99,,,-99.99,,2013-06-26 20:43:00,
2013-06-26 17:02:00,87.0,72.0,29.69,SSW,209,3.0,-999.0,62,-99.99,,,-99.99,,2013-06-26 21:02:00,
2013-06-26 17:23:00,86.0,74.0,29.68,SW,233,0.0,-999.0,68,-99.99,,,-99.99,,2013-06-26 21:23:00,
2013-06-26 17:33:00,84.0,76.0,29.68,NW,315,1.0,-999.0,76,-99.99,,,-99.99,,2013-06-26 21:33:00,
2013-06-26 17:43:00,83.0,77.0,29.67,NW,315,0.0,-999.0,83,-99.99,,,-99.99,,2013-06-26 21:43:00,
2013-06-26 17:52:00,83.0,77.0,29.67,NW,315,0.0,-999.0,83,-99.99,,,-99.99,,2013-06-26 21:52:00,
2013-06-26 18:01:00,82.0,76.0,29.67,NW,315,0.0,-999.0,82,-99.99,,,-99.99,,2013-06-26 22:01:00,
2013-06-26 18:11:00,82.0,76.0,29.67,NW,315,0.0,-999.0,82,-99.99,,,-99.99,,2013-06-26 22:11:00,
2013-06-26 18:34:00,83.0,76.0,29.68,NW,315,0.0,-999.0,79,-99.99,,,-99.99,,2013-06-26 22:34:00,
2013-06-26 18:43:00,83.0,75.0,29.67,NW,307,1.0,-999.0,78,-99.99,,,-99.99,,2013-06-26 22:43:00,
2013-06-26 18:52:00,83.0,75.0,29.67,NW,307,1.0,-999.0,78,-99.99,,,-99.99,,2013-06-26 22:52:00,
2013-06-26 19:02:00,83.0,74.0,29.67,SW,231,2.0,-999.0,74,-99.99,,,-99.99,,2013-06-26 23:02:00,
2013-06-26 19:22:00,83.0,74.0,29.67,WSW,239,0.0,-999.0,74,-99.99,,,-99.99,,2013-06-26 23:22:00,
2013-06-26 19:34:00,82.0,73.0,29.69,WSW,239,0.0,-999.0,74,-99.99,,,-99.99,,2013-06-26 23:34:00,
2013-06-26 19:43:00,79.0,72.0,29.69,North,360,3.0,-999.0,80,-99.99,,,-99.99,,2013-06-26 23:43:00,
2013-06-26 19:53:00,79.0,72.0,29.69,North,360,3.0,-999.0,80,-99.99,,,-99.99,,2013-06-26 23:53:00,
2013-06-26 20:01:00,77.0,71.0,29.69,NNE,19,0.0,-999.0,83,-99.99,,,-99.99,,2013-06-27 00:01:00,
2013-06-26 20:12:00,77.0,71.0,29.70,NNE,19,0.0,-999.0,83,-99.99,,,-99.99,,2013-06-27 00:12:00,
2013-06-26 20:22:00,77.0,71.0,29.70,NNE,19,0.0,-999.0,83,-99.99,,,-99.99,,2013-06-27 00:22:00,
2013-06-26 20:33:00,76.0,72.0,29.70,North,355,3.0,-999.0,88,-99.99,,,-99.99,,2013-06-27 00:33:00,
2013-06-26 20:43:00,75.0,72.0,29.70,North,360,1.0,-999.0,90,-99.99,,,-99.99,,2013-06-27 00:43:00,
2013-06-26 20:53:00,75.0,72.0,29.70,North,360,1.0,-999.0,90,-99.99,,,-99.99,,2013-06-27 00:53:00,
2013-06-26 21:01:00,75.0,72.0,29.70,North,360,1.0,-999.0,90,-99.99,,,-99.99,,2013-06-27 01:01:00,
2013-06-26 21:11:00,75.0,72.0,29.70,North,360,0.0,-999.0,90,-99.99,,,-99.99,,2013-06-27 01:11:00,
2013-06-26 21:22:00,75.0,72.0,29.70,North,360,0.0,-999.0,90,-99.99,,,-99.99,,2013-06-27 01:22:00,
2013-06-26 21:32:00,75.0,72.0,29.70,North,360,0.0,-999.0,90,-99.99,,,-99.99,,2013-06-27 01:32:00,
2013-06-26 21:43:00,75.0,72.0,29.71,WSW,255,2.0,-999.0,90,-99.99,,,-99.99,,2013-06-27 01:43:00,
2013-06-26 21:53:00,75.0,72.0,29.71,WSW,255,2.0,-999.0,90,-99.99,,,-99.99,,2013-06-27 01:53:00,
2013-06-26 22:01:00,75.0,72.0,29.71,WSW,255,2.0,-999.0,90,-99.99,,,-99.99,,2013-06-27 02:01:00,
2013-06-26 22:11:00,75.0,72.0,29.71,WSW,255,2.0,-999.0,90,-99.99,,,-99.99,,2013-06-27 02:11:00,
2013-06-26 22:22:00,74.0,72.0,29.71,WSW,255,0.0,-999.0,92,-99.99,,,-99.99,,2013-06-27 02:22:00,
2013-06-26 22:32:00,74.0,72.0,29.71,WSW,255,0.0,-999.0,92,-99.99,,,-99.99,,2013-06-27 02:32:00,
2013-06-26 22:42:00,74.0,72.0,29.71,WSW,255,0.0,-999.0,92,-99.99,,,-99.99,,2013-06-27 02:42:00,
2013-06-26 23:02:00,73.0,71.0,29.72,WSW,255,0.0,-999.0,95,-99.99,,,-99.99,,2013-06-27 03:02:00,
2013-06-26 23:11:00,73.0,71.0,29.72,WSW,255,0.0,-999.0,95,-99.99,,,-99.99,,2013-06-27 03:11:00,
2013-06-26 23:22:00,73.0,71.0,29.72,WSW,255,0.0,-999.0,95,-99.99,,,-99.99,,2013-06-27 03:22:00,
2013-06-26 23:33:00,73.0,71.0,29.72,WSW,255,0.0,-999.0,95,-99.99,,,-99.99,,2013-06-27 03:33:00,
2013-06-26 23:42:00,73.0,71.0,29.72,WSW,255,0.0,-999.0,95,-99.99,,,-99.99,,2013-06-27 03:42:00,
2013-06-26 23:52:00,73.0,72.0,29.74,SSE,166,1.0,-999.0,96,-99.99,,,-99.99,,2013-06-27 03:52:00,